JES3230 SABE-SANT

Flight info

Callsign JES3230
Flight time 1h 48m
Altitude 36000
Route DCT ERE UT680 ANGEN ANGEN1U
Aircraft A321/M-SDE3FGHIRWY/LB1

Departure

Time 2026-05-07 14:38
Airport Aeroparque Jorge Newbery (SABE)

Arrival

Time 2026-05-07 16:26
Airport Teniente Benjamín Matienzo International Airport (SANT)
Time Latitude Longitude Altitude Speed Heading
2026-05-07 13:59 -34.55552 -58.41678 26 ft 0 kts 34°
2026-05-07 14:28 -34.55563 -58.41686 30 ft 4 kts 36°
2026-05-07 14:28 -34.55584 -58.41706 27 ft 4 kts 40°
2026-05-07 14:28 -34.55604 -58.41728 29 ft 4 kts 49°
2026-05-07 14:28 -34.55619 -58.41755 31 ft 4 kts 71°
2026-05-07 14:29 -34.55621 -58.41779 30 ft 2 kts 123°
2026-05-07 14:29 -34.55618 -58.41785 25 ft 0 kts 124°
2026-05-07 14:31 -34.55621 -58.41779 25 ft 3 kts 124°
2026-05-07 14:31 -34.55644 -58.41739 27 ft 9 kts 126°
2026-05-07 14:31 -34.55684 -58.41667 26 ft 10 kts 123°
2026-05-07 14:32 -34.55716 -58.41608 25 ft 8 kts 123°
2026-05-07 14:32 -34.55774 -58.41589 26 ft 11 kts 187°
2026-05-07 14:32 -34.55828 -58.41531 30 ft 12 kts 117°
2026-05-07 14:32 -34.55871 -58.41431 29 ft 14 kts 117°
2026-05-07 14:33 -34.55910 -58.41338 28 ft 11 kts 117°
2026-05-07 14:33 -34.55946 -58.41268 27 ft 11 kts 125°
2026-05-07 14:33 -34.56006 -58.41171 25 ft 17 kts 127°
2026-05-07 14:33 -34.56089 -58.41040 27 ft 20 kts 128°
2026-05-07 14:34 -34.56160 -58.40910 29 ft 17 kts 119°
2026-05-07 14:34 -34.56191 -58.40796 30 ft 12 kts 123°
2026-05-07 14:34 -34.56233 -58.40721 27 ft 9 kts 124°
2026-05-07 14:34 -34.56262 -58.40667 25 ft 6 kts 123°
2026-05-07 14:35 -34.56285 -58.40627 27 ft 5 kts 123°
2026-05-07 14:35 -34.56304 -58.40593 27 ft 4 kts 128°
2026-05-07 14:35 -34.56343 -58.40542 30 ft 14 kts 138°
2026-05-07 14:35 -34.56440 -58.40442 27 ft 20 kts 138°
2026-05-07 14:36 -34.56504 -58.40384 25 ft 8 kts 168°
2026-05-07 14:36 -34.56553 -58.40421 25 ft 11 kts 245°
2026-05-07 14:36 -34.56526 -58.40499 26 ft 10 kts 303°
2026-05-07 14:36 -34.56489 -58.40566 28 ft 9 kts 304°
2026-05-07 14:37 -34.56448 -58.40640 29 ft 18 kts 304°
2026-05-07 14:37 -34.55814 -58.41777 28 ft 140 kts 304°
2026-05-07 14:37 -34.55229 -58.42820 473 ft 144 kts 302°
2026-05-07 14:38 -34.54661 -58.43769 1047 ft 142 kts 302°
2026-05-07 14:38 -34.53986 -58.44667 1614 ft 148 kts 309°
2026-05-07 14:38 -34.53101 -58.45414 2002 ft 167 kts 326°
2026-05-07 14:38 -34.51943 -58.45925 2246 ft 192 kts 343°
2026-05-07 14:39 -34.50528 -58.46010 2428 ft 217 kts
2026-05-07 14:39 -34.49005 -58.45478 2584 ft 241 kts 27°
2026-05-07 14:39 -34.47493 -58.44362 2935 ft 267 kts 32°
2026-05-07 14:39 -34.45853 -58.43114 3578 ft 286 kts 32°
2026-05-07 14:40 -34.44149 -58.41836 4745 ft 289 kts 32°
2026-05-07 14:40 -34.42431 -58.40551 5917 ft 289 kts 33°
2026-05-07 14:40 -34.40722 -58.39274 6947 ft 290 kts 31°
2026-05-07 14:40 -34.38947 -58.38153 7779 ft 294 kts 16°
2026-05-07 14:41 -34.36948 -58.37739 8785 ft 292 kts 358°
2026-05-07 14:41 -34.34955 -58.38112 9748 ft 290 kts 338°
2026-05-07 14:41 -34.33176 -58.39209 10517 ft 288 kts 323°
2026-05-07 14:41 -34.31466 -58.40634 10729 ft 310 kts 322°
2026-05-07 14:42 -34.29635 -58.42172 10889 ft 331 kts 322°
2026-05-07 14:42 -34.27713 -58.43779 11392 ft 338 kts 322°
2026-05-07 14:42 -34.25769 -58.45395 12112 ft 340 kts 323°
2026-05-07 14:42 -34.23811 -58.47012 12883 ft 341 kts 323°
2026-05-07 14:43 -34.21855 -58.48626 13632 ft 341 kts 322°
2026-05-07 14:43 -34.19899 -58.50234 14340 ft 340 kts 322°
2026-05-07 14:43 -34.17948 -58.51838 15088 ft 338 kts 322°
2026-05-07 14:43 -34.16045 -58.53423 15815 ft 336 kts 320°
2026-05-07 14:44 -34.14412 -58.55409 16511 ft 333 kts 306°
2026-05-07 14:44 -34.13336 -58.57885 17202 ft 336 kts 292°
2026-05-07 14:44 -34.12908 -58.60680 17859 ft 345 kts 277°
2026-05-07 14:44 -34.13122 -58.63611 18389 ft 354 kts 270°
2026-05-07 14:45 -34.13462 -58.66557 18855 ft 357 kts 268°
2026-05-07 14:45 -34.13813 -58.69537 19366 ft 359 kts 269°
2026-05-07 14:45 -34.14159 -58.72519 19865 ft 357 kts 271°
2026-05-07 14:45 -34.14351 -58.75510 20312 ft 354 kts 280°
2026-05-07 14:46 -34.13984 -58.78400 20821 ft 345 kts 292°
2026-05-07 14:46 -34.13091 -58.81010 21309 ft 339 kts 303°
2026-05-07 14:46 -34.11721 -58.83297 21787 ft 336 kts 314°
2026-05-07 14:46 -34.09953 -58.85140 22258 ft 338 kts 325°
2026-05-07 14:47 -34.07946 -58.86622 22763 ft 339 kts 328°
2026-05-07 14:47 -34.05922 -58.88095 23274 ft 340 kts 328°
2026-05-07 14:47 -34.03894 -58.89578 23683 ft 342 kts 328°
2026-05-07 14:47 -34.01863 -58.91067 24072 ft 342 kts 328°
2026-05-07 14:48 -33.99821 -58.92566 24438 ft 344 kts 328°
2026-05-07 14:48 -33.97770 -58.94069 24800 ft 346 kts 328°
2026-05-07 14:48 -33.95711 -58.95583 25133 ft 348 kts 328°
2026-05-07 14:48 -33.93655 -58.97139 25498 ft 350 kts 327°
2026-05-07 14:49 -33.91629 -58.98703 25854 ft 352 kts 327°
2026-05-07 14:49 -33.89569 -59.00304 26222 ft 353 kts 327°
2026-05-07 14:49 -33.87500 -59.01910 26577 ft 354 kts 328°
2026-05-07 14:49 -33.85422 -59.03514 26969 ft 356 kts 328°
2026-05-07 14:50 -33.83330 -59.05118 27361 ft 357 kts 328°
2026-05-07 14:50 -33.81229 -59.06724 27713 ft 359 kts 328°
2026-05-07 14:50 -33.79120 -59.08332 28055 ft 360 kts 328°
2026-05-07 14:50 -33.76999 -59.09949 28316 ft 362 kts 328°
2026-05-07 14:51 -33.74869 -59.11572 28617 ft 364 kts 328°
2026-05-07 14:51 -33.72725 -59.13205 28925 ft 365 kts 329°
2026-05-07 14:51 -33.70600 -59.14819 29229 ft 367 kts 329°
2026-05-07 14:51 -33.68439 -59.16463 29542 ft 369 kts 329°
2026-05-07 14:52 -33.66269 -59.18121 29873 ft 369 kts 329°
2026-05-07 14:52 -33.64107 -59.19770 30225 ft 368 kts 329°
2026-05-07 14:52 -33.61949 -59.21414 30589 ft 366 kts 329°
2026-05-07 14:52 -33.59800 -59.23051 30918 ft 365 kts 329°
2026-05-07 14:53 -33.57658 -59.24682 31241 ft 365 kts 330°
2026-05-07 14:53 -33.55515 -59.26310 31578 ft 364 kts 330°
2026-05-07 14:53 -33.53376 -59.27931 31922 ft 363 kts 330°
2026-05-07 14:53 -33.51241 -59.29544 32262 ft 362 kts 330°
2026-05-07 14:54 -33.49108 -59.31155 32603 ft 362 kts 330°
2026-05-07 14:54 -33.47013 -59.32737 32989 ft 361 kts 330°
2026-05-07 14:54 -33.44890 -59.34346 33307 ft 361 kts 330°
2026-05-07 14:54 -33.42765 -59.35957 33639 ft 361 kts 331°
2026-05-07 14:55 -33.40646 -59.37559 33917 ft 360 kts 330°
2026-05-07 14:55 -33.38521 -59.39160 34166 ft 361 kts 330°
2026-05-07 14:55 -33.36395 -59.40762 34418 ft 361 kts 330°
2026-05-07 14:55 -33.34270 -59.42365 34665 ft 361 kts 330°
2026-05-07 14:56 -33.32144 -59.43970 34918 ft 361 kts 330°
2026-05-07 14:56 -33.30017 -59.45574 35171 ft 361 kts 330°
2026-05-07 14:56 -33.27891 -59.47174 35413 ft 362 kts 330°
2026-05-07 14:56 -33.25761 -59.48780 35640 ft 362 kts 330°
2026-05-07 14:57 -33.21510 -59.51988 35708 ft 360 kts 330°
2026-05-07 14:57 -33.17309 -59.55145 35752 ft 359 kts 330°
2026-05-07 14:58 -33.13079 -59.58308 35757 ft 359 kts 330°
2026-05-07 14:58 -33.08851 -59.61478 35774 ft 360 kts 329°
2026-05-07 14:59 -33.04584 -59.64664 35761 ft 362 kts 329°
2026-05-07 14:59 -33.00310 -59.67859 35729 ft 363 kts 329°
2026-05-07 15:00 -32.96060 -59.71040 35743 ft 363 kts 329°
2026-05-07 15:00 -32.91775 -59.74239 35758 ft 363 kts 329°
2026-05-07 15:01 -32.87488 -59.77424 35772 ft 363 kts 329°
2026-05-07 15:01 -32.83211 -59.80607 35725 ft 363 kts 328°
2026-05-07 15:02 -32.78930 -59.83796 35753 ft 364 kts 329°
2026-05-07 15:02 -32.74666 -59.86964 35763 ft 364 kts 329°
2026-05-07 15:03 -32.70382 -59.90145 35781 ft 362 kts 328°
2026-05-07 15:03 -32.66115 -59.93299 35774 ft 361 kts 328°
2026-05-07 15:04 -32.61852 -59.96455 35783 ft 362 kts 328°
2026-05-07 15:04 -32.57578 -59.99623 35778 ft 363 kts 328°
2026-05-07 15:05 -32.53290 -60.02785 35778 ft 363 kts 328°
2026-05-07 15:05 -32.49042 -60.05921 35791 ft 362 kts 328°
2026-05-07 15:06 -32.44765 -60.09072 35780 ft 362 kts 328°
2026-05-07 15:06 -32.40489 -60.12216 35776 ft 362 kts 328°
2026-05-07 15:07 -32.36217 -60.15360 35792 ft 361 kts 328°
2026-05-07 15:07 -32.31957 -60.18488 35807 ft 361 kts 328°
2026-05-07 15:08 -32.27694 -60.21612 35784 ft 361 kts 328°
2026-05-07 15:08 -32.23452 -60.24715 35745 ft 361 kts 327°
2026-05-07 15:09 -32.19186 -60.27838 35764 ft 361 kts 328°
2026-05-07 15:09 -32.14920 -60.30961 35781 ft 361 kts 327°
2026-05-07 15:10 -32.10651 -60.34079 35797 ft 361 kts 328°
2026-05-07 15:10 -32.06382 -60.37194 35813 ft 361 kts 328°
2026-05-07 15:11 -32.02140 -60.40279 35812 ft 360 kts 327°
2026-05-07 15:11 -31.97885 -60.43371 35845 ft 359 kts 327°
2026-05-07 15:12 -31.93644 -60.46458 35928 ft 358 kts 327°
2026-05-07 15:12 -31.89395 -60.49541 35865 ft 359 kts 327°
2026-05-07 15:13 -31.85146 -60.52627 35857 ft 359 kts 327°
2026-05-07 15:13 -31.80916 -60.55686 35827 ft 359 kts 327°
2026-05-07 15:14 -31.76662 -60.58764 35838 ft 359 kts 327°
2026-05-07 15:14 -31.72405 -60.61856 35834 ft 358 kts 327°
2026-05-07 15:15 -31.68131 -60.64937 35856 ft 362 kts 328°
2026-05-07 15:15 -31.63838 -60.68033 35762 ft 363 kts 327°
2026-05-07 15:16 -31.60286 -60.70602 35796 ft 360 kts 327°
2026-05-07 15:16 -31.56017 -60.73664 35819 ft 359 kts 327°
2026-05-07 15:17 -31.51785 -60.76692 35833 ft 358 kts 328°
2026-05-07 15:17 -31.47537 -60.79757 35810 ft 360 kts 327°
2026-05-07 15:18 -31.43260 -60.82827 35742 ft 363 kts 327°
2026-05-07 15:18 -31.38960 -60.85917 35805 ft 361 kts 327°
2026-05-07 15:19 -31.34664 -60.89000 35822 ft 360 kts 327°
2026-05-07 15:19 -31.30441 -60.92029 35807 ft 359 kts 327°
2026-05-07 15:20 -31.26168 -60.95073 35804 ft 361 kts 327°
2026-05-07 15:20 -31.21889 -60.98105 35790 ft 363 kts 327°
2026-05-07 15:21 -31.17599 -61.01176 35832 ft 360 kts 326°
2026-05-07 15:21 -31.13365 -61.04181 35829 ft 356 kts 327°
2026-05-07 15:22 -31.09099 -61.07217 35826 ft 363 kts 325°
2026-05-07 15:22 -31.04793 -61.10302 35823 ft 361 kts 327°
2026-05-07 15:23 -31.00464 -61.13357 35786 ft 363 kts 327°
2026-05-07 15:23 -30.96119 -61.16422 35807 ft 367 kts 326°
2026-05-07 15:24 -30.91801 -61.19486 35826 ft 365 kts 327°
2026-05-07 15:24 -30.87470 -61.22555 35837 ft 364 kts 326°
2026-05-07 15:25 -30.83150 -61.25614 35838 ft 363 kts 327°
2026-05-07 15:25 -30.78838 -61.28658 35798 ft 361 kts 326°
2026-05-07 15:26 -30.74545 -61.31695 35818 ft 361 kts 327°
2026-05-07 15:26 -30.70279 -61.34687 35860 ft 362 kts 326°
2026-05-07 15:27 -30.65972 -61.37719 35827 ft 363 kts 326°
2026-05-07 15:27 -30.61651 -61.40765 35816 ft 364 kts 326°
2026-05-07 15:28 -30.57317 -61.43805 35814 ft 364 kts 326°
2026-05-07 15:28 -30.52976 -61.46843 35818 ft 364 kts 326°
2026-05-07 15:29 -30.48665 -61.49863 35821 ft 364 kts 327°
2026-05-07 15:29 -30.44324 -61.52901 35820 ft 365 kts 326°
2026-05-07 15:30 -30.39988 -61.55946 35817 ft 364 kts 326°
2026-05-07 15:30 -30.35657 -61.58986 35800 ft 364 kts 326°
2026-05-07 15:31 -30.31315 -61.62014 35816 ft 364 kts 326°
2026-05-07 15:31 -30.26998 -61.65013 35821 ft 364 kts 326°
2026-05-07 15:32 -30.23797 -61.67243 35820 ft 364 kts 326°
2026-05-07 15:32 -30.19461 -61.70272 35835 ft 364 kts 326°
2026-05-07 15:33 -30.15125 -61.73287 35804 ft 363 kts 327°
2026-05-07 15:33 -30.10796 -61.76286 35818 ft 363 kts 326°
2026-05-07 15:34 -30.06506 -61.79261 35821 ft 362 kts 326°
2026-05-07 15:34 -30.02187 -61.82254 35827 ft 362 kts 327°
2026-05-07 15:35 -29.97863 -61.85248 35835 ft 363 kts 326°
2026-05-07 15:35 -29.93540 -61.88241 35802 ft 361 kts 326°
2026-05-07 15:36 -29.89226 -61.91222 35834 ft 362 kts 326°
2026-05-07 15:36 -29.85316 -61.94739 35870 ft 360 kts 315°
2026-05-07 15:37 -29.81684 -61.98726 35853 ft 361 kts 316°
2026-05-07 15:37 -29.78027 -62.02717 35845 ft 363 kts 316°
2026-05-07 15:38 -29.74362 -62.06716 35839 ft 363 kts 316°
2026-05-07 15:38 -29.70699 -62.10711 35830 ft 363 kts 316°
2026-05-07 15:39 -29.67032 -62.14705 35841 ft 363 kts 316°
2026-05-07 15:39 -29.63388 -62.18669 35848 ft 363 kts 316°
2026-05-07 15:40 -29.59725 -62.22664 35904 ft 363 kts 316°
2026-05-07 15:40 -29.56036 -62.26684 35858 ft 367 kts 315°
2026-05-07 15:41 -29.52320 -62.30714 35807 ft 368 kts 315°
2026-05-07 15:41 -29.48615 -62.34728 35812 ft 370 kts 315°
2026-05-07 15:42 -29.44875 -62.38779 35823 ft 370 kts 315°
2026-05-07 15:42 -29.41131 -62.42829 35839 ft 370 kts 315°
2026-05-07 15:43 -29.37384 -62.46880 35839 ft 370 kts 315°
2026-05-07 15:43 -29.33634 -62.50923 35848 ft 370 kts 315°
2026-05-07 15:44 -29.29921 -62.54929 35865 ft 370 kts 314°
2026-05-07 15:44 -29.26168 -62.58980 35835 ft 372 kts 314°
2026-05-07 15:45 -29.22388 -62.63046 35836 ft 373 kts 314°
2026-05-07 15:45 -29.18601 -62.67124 35847 ft 374 kts 314°
2026-05-07 15:46 -29.12931 -62.73235 35841 ft 376 kts 314°
2026-05-07 15:47 -29.09113 -62.77314 35852 ft 376 kts 314°
2026-05-07 15:47 -29.05288 -62.81404 35864 ft 376 kts 314°
2026-05-07 15:48 -29.01461 -62.85495 35878 ft 379 kts 313°
2026-05-07 15:48 -28.97628 -62.89591 35864 ft 381 kts 313°
2026-05-07 15:49 -28.93756 -62.93727 35853 ft 381 kts 313°
2026-05-07 15:49 -28.89877 -62.97873 35829 ft 382 kts 313°
2026-05-07 15:50 -28.85977 -63.02028 35871 ft 384 kts 313°
2026-05-07 15:50 -28.82099 -63.06157 35876 ft 384 kts 313°
2026-05-07 15:51 -28.78194 -63.10308 35880 ft 384 kts 313°
2026-05-07 15:51 -28.74292 -63.14451 35901 ft 383 kts 313°
2026-05-07 15:52 -28.70377 -63.18594 35866 ft 385 kts 312°
2026-05-07 15:52 -28.66471 -63.22744 35863 ft 390 kts 312°
2026-05-07 15:53 -28.62501 -63.26961 35877 ft 390 kts 312°
2026-05-07 15:53 -28.58519 -63.31168 35879 ft 390 kts 312°
2026-05-07 15:54 -28.54543 -63.35373 35885 ft 390 kts 312°
2026-05-07 15:54 -28.50560 -63.39572 35886 ft 390 kts 312°
2026-05-07 15:55 -28.46570 -63.43762 35908 ft 391 kts 312°
2026-05-07 15:55 -28.42574 -63.47951 35891 ft 391 kts 311°
2026-05-07 15:56 -28.38586 -63.52161 35893 ft 392 kts 311°
2026-05-07 15:56 -28.34613 -63.56347 35893 ft 393 kts 311°
2026-05-07 15:57 -28.30599 -63.60556 35896 ft 393 kts 311°
2026-05-07 15:57 -28.26578 -63.64768 35860 ft 393 kts 311°
2026-05-07 15:58 -28.22557 -63.68982 35875 ft 394 kts 311°
2026-05-07 15:58 -28.18552 -63.73181 35879 ft 395 kts 311°
2026-05-07 15:59 -28.14503 -63.77407 35897 ft 397 kts 310°
2026-05-07 15:59 -28.10437 -63.81648 35890 ft 397 kts 310°
2026-05-07 16:00 -28.06375 -63.85883 35888 ft 397 kts 310°
2026-05-07 16:00 -28.02348 -63.90100 35917 ft 400 kts 310°
2026-05-07 16:01 -27.98235 -63.94417 35912 ft 405 kts 310°
2026-05-07 16:01 -27.94095 -63.98730 35917 ft 404 kts 310°
2026-05-07 16:02 -27.89963 -64.03037 35918 ft 404 kts 310°
2026-05-07 16:02 -27.85876 -64.07316 35908 ft 403 kts 309°
2026-05-07 16:03 -27.81763 -64.11610 35687 ft 404 kts 309°
2026-05-07 16:03 -27.79686 -64.13773 35445 ft 407 kts 309°
2026-05-07 16:03 -27.77602 -64.15941 35208 ft 408 kts 309°
2026-05-07 16:03 -27.75508 -64.18115 34960 ft 409 kts 309°
2026-05-07 16:04 -27.73404 -64.20296 34246 ft 413 kts 309°
2026-05-07 16:04 -27.71277 -64.22505 33363 ft 418 kts 309°
2026-05-07 16:04 -27.69126 -64.24740 32535 ft 421 kts 309°
2026-05-07 16:04 -27.66992 -64.26958 31666 ft 424 kts 310°
2026-05-07 16:05 -27.64819 -64.29214 30873 ft 425 kts 310°
2026-05-07 16:05 -27.62659 -64.31448 30381 ft 418 kts 310°
2026-05-07 16:05 -27.60524 -64.33651 29800 ft 415 kts 310°
2026-05-07 16:05 -27.58409 -64.35833 29200 ft 408 kts 310°
2026-05-07 16:06 -27.56333 -64.37969 28677 ft 402 kts 309°
2026-05-07 16:06 -27.54286 -64.40079 28150 ft 396 kts 309°
2026-05-07 16:06 -27.52269 -64.42160 27632 ft 390 kts 309°
2026-05-07 16:06 -27.50286 -64.44208 27126 ft 384 kts 309°
2026-05-07 16:07 -27.48332 -64.46224 26627 ft 378 kts 309°
2026-05-07 16:07 -27.46428 -64.48188 26136 ft 373 kts 308°
2026-05-07 16:07 -27.44530 -64.50150 25662 ft 368 kts 308°
2026-05-07 16:07 -27.42653 -64.52087 25188 ft 363 kts 308°
2026-05-07 16:08 -27.40803 -64.53992 24726 ft 358 kts 308°
2026-05-07 16:08 -27.38984 -64.55864 24274 ft 351 kts 308°
2026-05-07 16:08 -27.37196 -64.57702 23781 ft 345 kts 307°
2026-05-07 16:08 -27.35446 -64.59500 23386 ft 338 kts 307°
2026-05-07 16:09 -27.33639 -64.61192 22901 ft 339 kts 313°
2026-05-07 16:09 -27.31781 -64.62737 22447 ft 334 kts 313°
2026-05-07 16:09 -27.29926 -64.64273 22013 ft 329 kts 313°
2026-05-07 16:09 -27.28091 -64.65789 21579 ft 325 kts 313°
2026-05-07 16:10 -27.26282 -64.67285 21157 ft 320 kts 314°
2026-05-07 16:10 -27.24499 -64.68764 20739 ft 317 kts 314°
2026-05-07 16:10 -27.22728 -64.70236 20315 ft 316 kts 314°
2026-05-07 16:10 -27.20965 -64.71701 19882 ft 315 kts 314°
2026-05-07 16:11 -27.19174 -64.73118 19440 ft 317 kts 320°
2026-05-07 16:11 -27.17171 -64.74162 19009 ft 327 kts 331°
2026-05-07 16:11 -27.14930 -64.74772 18544 ft 334 kts 338°
2026-05-07 16:11 -27.12657 -64.75292 18005 ft 333 kts 338°
2026-05-07 16:12 -27.10394 -64.75812 17532 ft 330 kts 339°
2026-05-07 16:12 -27.08151 -64.76330 17052 ft 329 kts 340°
2026-05-07 16:12 -27.05918 -64.76846 16583 ft 326 kts 340°
2026-05-07 16:12 -27.03702 -64.77358 16126 ft 325 kts 340°
2026-05-07 16:13 -27.01497 -64.77865 15678 ft 323 kts 341°
2026-05-07 16:13 -26.99305 -64.78371 15239 ft 320 kts 341°
2026-05-07 16:13 -26.97130 -64.78875 14798 ft 319 kts 342°
2026-05-07 16:13 -26.94987 -64.79372 14370 ft 318 kts 342°
2026-05-07 16:14 -26.92825 -64.79874 13937 ft 316 kts 343°
2026-05-07 16:14 -26.90679 -64.80365 13485 ft 313 kts 344°
2026-05-07 16:14 -26.88543 -64.80859 13034 ft 313 kts 344°
2026-05-07 16:14 -26.86414 -64.81355 12590 ft 312 kts 344°
2026-05-07 16:15 -26.84285 -64.81848 12164 ft 313 kts 344°
2026-05-07 16:15 -26.82155 -64.82341 11730 ft 313 kts 345°
2026-05-07 16:15 -26.80042 -64.82828 11293 ft 310 kts 343°
2026-05-07 16:15 -26.77927 -64.83318 10857 ft 311 kts 346°
2026-05-07 16:16 -26.75833 -64.83798 10427 ft 312 kts 346°
2026-05-07 16:16 -26.73732 -64.84279 10232 ft 304 kts 345°
2026-05-07 16:16 -26.71666 -64.84752 10125 ft 302 kts 344°
2026-05-07 16:16 -26.69601 -64.85227 10052 ft 304 kts 345°
2026-05-07 16:17 -26.67520 -64.85705 9949 ft 306 kts 347°
2026-05-07 16:17 -26.65464 -64.86223 9793 ft 297 kts 337°
2026-05-07 16:17 -26.63719 -64.87281 9666 ft 277 kts 315°
2026-05-07 16:17 -26.62494 -64.88844 9125 ft 262 kts 293°
2026-05-07 16:18 -26.61867 -64.90705 8498 ft 253 kts 272°
2026-05-07 16:18 -26.61712 -64.92588 7862 ft 242 kts 265°
2026-05-07 16:18 -26.61593 -64.94489 7088 ft 248 kts 266°
2026-05-07 16:18 -26.61461 -64.96409 6503 ft 247 kts 265°
2026-05-07 16:19 -26.61326 -64.98316 6184 ft 239 kts 264°
2026-05-07 16:19 -26.61188 -65.00108 6114 ft 226 kts 264°
2026-05-07 16:19 -26.61081 -65.01783 6058 ft 202 kts 257°
2026-05-07 16:19 -26.61389 -65.03173 5956 ft 171 kts 231°
2026-05-07 16:20 -26.62082 -65.04128 5798 ft 151 kts 213°
2026-05-07 16:20 -26.62956 -65.04672 5587 ft 142 kts 194°
2026-05-07 16:20 -26.63860 -65.05119 5366 ft 144 kts 197°
2026-05-07 16:20 -26.64775 -65.05584 5144 ft 147 kts 200°
2026-05-07 16:21 -26.65695 -65.06053 4932 ft 144 kts 200°
2026-05-07 16:21 -26.66603 -65.06518 4737 ft 143 kts 201°
2026-05-07 16:21 -26.67501 -65.06978 4536 ft 143 kts 201°
2026-05-07 16:21 -26.68403 -65.07429 4316 ft 141 kts 199°
2026-05-07 16:22 -26.69367 -65.07637 4130 ft 142 kts 186°
2026-05-07 16:22 -26.70329 -65.07815 3921 ft 139 kts 187°
2026-05-07 16:22 -26.71285 -65.07997 3734 ft 141 kts 186°
2026-05-07 16:22 -26.72248 -65.08188 3595 ft 139 kts 186°
2026-05-07 16:23 -26.73209 -65.08379 3393 ft 138 kts 188°
2026-05-07 16:23 -26.74143 -65.08574 3203 ft 138 kts 187°
2026-05-07 16:23 -26.75094 -65.08765 3018 ft 139 kts 186°
2026-05-07 16:23 -26.76031 -65.08948 2824 ft 137 kts 188°
2026-05-07 16:24 -26.76981 -65.09133 2614 ft 141 kts 188°
2026-05-07 16:24 -26.77931 -65.09308 2405 ft 138 kts 186°
2026-05-07 16:24 -26.78875 -65.09488 2230 ft 137 kts 192°
2026-05-07 16:24 -26.79825 -65.09663 2045 ft 139 kts 191°
2026-05-07 16:25 -26.80776 -65.09821 1857 ft 138 kts 191°
2026-05-07 16:25 -26.81714 -65.10011 1694 ft 137 kts 194°
2026-05-07 16:25 -26.82624 -65.10194 1512 ft 133 kts 194°
2026-05-07 16:25 -26.83432 -65.10355 1482 ft 87 kts 188°
2026-05-07 16:26 -26.83765 -65.10424 1488 ft 19 kts 191°
2026-05-07 16:26 -26.83848 -65.10479 1493 ft 0 kts 213°
2026-05-07 16:27 -26.83853 -65.10483 1493 ft 4 kts 213°
2026-05-07 16:27 -26.83901 -65.10520 1492 ft 13 kts 216°
2026-05-07 16:27 -26.83942 -65.10612 1479 ft 13 kts 284°
2026-05-07 16:27 -26.83871 -65.10673 1484 ft 15 kts 338°
2026-05-07 16:28 -26.83759 -65.10716 1490 ft 18 kts 342°
2026-05-07 16:28 -26.83655 -65.10719 1483 ft 14 kts 10°
2026-05-07 16:28 -26.83573 -65.10702 1481 ft 10 kts 11°
2026-05-07 16:28 -26.83546 -65.10696 1481 ft 0 kts 10°
2026-05-07 16:29 -26.83536 -65.10699 1492 ft 2 kts 339°
2026-05-07 16:29 -26.83535 -65.10706 1492 ft 1 kts 284°
2026-05-07 16:29 -26.83530 -65.10740 1483 ft 2 kts 280°
2026-05-07 16:29 -26.83529 -65.10745 1492 ft 0 kts 280°
2026-05-07 16:30 -26.83528 -65.10749 1492 ft 1 kts 280°
2026-05-07 16:30 -26.83528 -65.10750 1492 ft 0 kts 281°